Home   Weather   Cork   Past weeks

Flag for Ireland Past Weather in Cork, Ireland — Yesterday and Last 2 Weeks

Now
50 °F

Overcast.


Feels Like: 48 °F
Forecast: 37 / 51 °F
Wind: 5 mph from Northwest

Location: Cork Airport

Current Time: Apr 24, 2017 at 2:47:37 am

Latest Report: Apr 24, 2017 at 1:00 am


Visibility: 31 mi

Pressure: 30.23 "Hg

Humidity: 86%

Dew Point: 46 °F

Location of CorkLocation

Past Weather in Cork — Graph

°F

Cork Temperature Yesterday

Maximum temperature yesterday: 54 °F (at 3:00 pm)
Minimum temperature yesterday: 48 °F (at 6:00 am)
Average temperature yesterday: 51 °F

High & Low Weather Summary for the Past Weeks

 TemperatureHumidityPressure
High59 °F (Apr 21, 2:00 pm)99% (Apr 9, 1:00 am)30.65 "Hg (Apr 9, 1:00 am)
Low40 °F (Apr 11, 6:00 am)47% (Apr 21, 2:00 pm)30.02 "Hg (Apr 9, 3:00 am)
Average49 °F78%30.35 "Hg
* Reported Apr 9 1:00 am — Apr 24 1:00 am, Cork, Weather by CustomWeather, © 2017

Note: Actual official high and low records may vary slightly from our data, if they occured in-between our weather recording intervals... More about our weather records

Advertising

Cork Weather History for the Previous 24 Hours

Scroll right to see more
 ConditionsComfort  
Time TempWeatherWind HumidityBarometerVisibility
1:00 am
Mon, Apr 24
50 °FOvercast.5 mph86%30.23 "Hg31 mi
12:00 am50 °FOvercast.3 mph92%30.24 "Hg25 mi
11:00 pm
Sun, Apr 23
49 °FOvercast.2 mph96%30.25 "Hg31 mi
10:00 pm49 °FOvercast.2 mph94%30.26 "Hg31 mi
9:00 pm50 °FOvercast.1 mph92%30.26 "Hg31 mi
8:00 pm51 °FOvercast.2 mph85%30.27 "Hg31 mi
7:00 pm52 °FOvercast.2 mph79%30.27 "Hg31 mi
6:00 pm53 °FOvercast.2 mph79%30.28 "Hg31 mi
5:00 pm53 °FOvercast.3 mph77%30.29 "Hg31 mi
4:00 pm53 °FOvercast.3 mph76%30.30 "Hg31 mi
3:00 pm54 °FOvercast.3 mph74%30.32 "Hg31 mi
2:00 pm53 °FOvercast.3 mph77%30.34 "Hg31 mi
1:00 pm53 °FOvercast.3 mph81%30.34 "Hg31 mi
12:00 pm52 °FOvercast.5 mph80%30.35 "Hg31 mi
11:00 am52 °FOvercast.3 mph78%30.36 "Hg31 mi
10:00 am51 °FOvercast.1 mph76%30.37 "Hg31 mi
9:00 am51 °FOvercast.1 mph76%30.37 "Hg34 mi
8:00 am50 °FOvercast.2 mph80%30.37 "Hg31 mi
7:00 am49 °FOvercast.3 mph80%30.36 "Hg31 mi
6:00 am48 °FOvercast.2 mph80%30.37 "Hg25 mi
5:00 am49 °FOvercast.3 mph80%30.38 "Hg31 mi
4:00 am49 °FOvercast.2 mph79%30.38 "Hg31 mi
3:00 am49 °FOvercast.2 mph78%30.40 "Hg31 mi
2:00 am49 °FOvercast.2 mph76%30.41 "Hg31 mi
Weather by CustomWeather, © 2017

See weather overviewHow to use our weather pages